SCP
0 0 0 0 0 0 0 0 0 0 0 0 0 1 1 1 1 1 2 4 5 7 8 10 14 14 13 11 10 9 8 6 5 5 5 6 5 5 4 4 3 3 2 2
0 0 0 0 0 0 0 0 0 0 0 0 0 1 1 1 1 1 3 4 6 7 8 11 15 15 12 11 10 9 7 6 5 5 5 5 6 5 4 4 3 3 2 2
0 0 0 0 0 0 0 0 0 0 0 0 0 1 1 1 1 2 3 5 6 7 8 10 12 11 9 9 9 8 6 6 5 5 5 5 6 6 5 4 4 3 3 3
0 0 0 0 0 0 0 0 0 0 0 0 1 1 1 1 1 2 3 4 5 6 6 7 8 7 6 7 8 7 6 6 5 5 5 5 5 5 5 5 4 4 4 3
0 0 0 0 0 0 0 0 0 0 0 0 1 1 1 1 1 2 3 3 4 5 5 5 6 7 6 6 7 7 6 6 5 5 5 4 4 4 5 5 5 4 4 4
0 0 0 0 0 0 0 0 0 0 0 0 1 1 1 2 1 2 3 3 4 5 5 5 7 8 7 6 6 7 7 6 5 5 5 4 4 4 5 5 5 4 4 4
0 0 0 0 0 0 0 0 0 0 0 0 0 1 2 2 1 2 2 3 4 5 4 5 7 9 9 8 7 7 7 6 4 4 4 4 4 4 4 4 4 3 3 3
0 0 0 0 0 0 0 0 0 0 0 0 0 1 1 1 1 1 2 3 4 4 3 4 6 10 11 9 8 7 7 5 4 4 4 4 3 3 3 3 3 3 3 3
0 0 0 0 0 0 0 0 0 0 0 0 1 1 1 1 1 1 2 3 3 3 2 3 6 9 10 9 7 7 6 5 4 3 3 3 2 3 3 3 2 2 3 3
0 0 0 0 0 0 0 0 0 0 0 0 1 1 1 1 2 2 2 2 2 2 2 2 4 6 7 6 6 6 6 5 5 4 2 2 2 3 3 3 3 3 3 3
0 0 0 0 0 0 0 0 0 0 0 0 0 1 1 2 2 2 2 2 2 2 2 2 3 4 4 4 5 5 4 5 5 4 2 2 2 2 3 3 3 3 3 3
0 0 0 0 0 0 0 0 0 0 0 0 0 1 1 2 2 2 2 2 2 2 2 3 4 4 4 4 4 3 3 3 3 3 2 2 2 2 3 3 3 3 3 3
0 0 0 0 0 0 0 0 0 1 1 1 0 1 1 2 2 2 2 3 3 3 3 4 4 4 4 3 3 3 3 3 2 2 2 2 2 2 3 3 3 3 3 3
0 0 0 0 0 0 0 0 0 1 1 1 1 1 2 2 2 2 2 3 4 4 4 4 4 4 3 3 2 2 2 2 2 2 2 3 3 3 3 3 3 3 3 3
0 0 0 1 1 0 0 0 0 0 1 1 2 2 3 4 3 2 2 3 4 3 3 4 4 4 3 3 3 3 3 3 3 3 3 3 3 3 3 3 3 3 3 3
1 1 1 1 1 0 0 0 0 1 1 1 2 3 4 4 3 3 3 4 4 3 3 3 4 4 3 3 3 3 3 3 3 3 3 4 4 3 2 2 2 3 3 2
2 2 1 1 1 1 1 1 1 1 1 2 2 3 5 5 4 5 5 5 5 5 5 5 4 4 4 4 4 3 3 3 3 3 3 3 3 3 2 2 2 3 3 3
2 2 2 1 1 1 1 1 2 2 2 2 3 4 5 6 6 6 6 7 8 9 7 6 6 5 5 5 4 4 4 3 3 3 3 3 3 2 2 2 2 3 3 3
2 2 2 1 1 1 1 2 2 3 3 3 4 5 5 5 5 5 7 9 12 11 8 6 6 5 5 5 5 5 4 4 3 3 3 3 3 3 3 3 3 3 4 4
2 2 1 1 1 1 1 2 2 3 3 3 4 4 4 3 4 6 8 10 10 9 6 6 6 5 5 5 5 4 4 4 3 3 3 4 4 5 5 4 4 4 4 4
2 2 1 1 1 1 1 2 2 3 3 3 3 3 3 3 4 5 6 7 6 6 6 7 7 6 6 6 5 4 4 3 3 3 3 4 5 5 5 5 5 5 5 5
2 2 1 1 1 2 2 2 3 3 3 3 3 3 3 3 3 4 4 4 5 5 6 7 7 6 6 6 5 4 4 4 4 4 5 5 5 5 5 5 5 5 5 5
2 2 3 3 3 4 4 3 2 2 2 3 2 2 2 2 3 3 3 4 5 6 6 7 6 6 5 5 5 4 4 4 4 5 6 6 6 5 5 6 6 5 5 4
2 3 4 5 5 5 4 3 2 2 2 2 2 2 2 3 3 4 4 4 4 5 5 5 5 5 4 4 4 4 4 4 4 5 5 6 7 7 7 7 6 5 4 3
2 3 5 5 6 5 3 2 2 1 2 2 2 2 2 2 3 3 3 4 3 3 3 3 3 3 3 3 4 4 4 4 4 4 4 5 7 8 8 6 4 3 3 2
2 3 5 5 5 4 2 1 1 1 2 3 3 2 2 2 2 2 3 3 3 2 2 2 2 2 1 2 4 5 5 4 3 3 4 5 6 8 8 5 3 2 1 1
Wind_Speed
15 14 15 17 19 17 15 15 12 7 6 9 10 9 7 7 7 7 7 8 9 10 11 10 10 11 12 11 12 12 12 11 10 8 8 7 6 5 5 5 8 7 7 6
15 19 19 18 16 16 15 15 13 7 7 9 9 9 7 7 9 8 8 8 9 9 10 11 11 11 11 12 12 12 13 13 11 8 7 6 7 5 5 5 7 8 7 7
21 15 18 18 16 15 14 15 12 9 10 10 9 10 7 4 3 4 6 8 9 10 12 12 12 11 11 12 12 12 13 13 12 10 7 6 5 4 5 6 6 7 7 7
19 19 14 15 16 15 14 14 13 12 10 8 8 7 5 5 4 6 5 6 8 9 11 12 12 11 11 11 11 10 11 11 11 11 10 11 9 8 7 6 6 7 7 7
16 17 17 16 15 15 14 12 12 12 11 10 8 8 5 6 6 6 7 8 8 9 10 11 11 11 10 11 11 10 11 11 11 11 11 10 8 7 6 7 8 7 6 7
17 16 16 16 15 14 13 12 11 9 9 11 10 9 5 5 6 8 9 9 8 9 9 9 9 9 9 10 10 10 11 11 12 12 11 10 10 8 8 9 8 7 6 5
17 17 15 13 14 14 14 11 7 7 8 8 7 7 4 7 7 7 8 9 9 10 9 9 9 10 10 10 10 10 12 12 12 12 11 10 10 9 9 9 8 8 7 6
15 15 16 14 14 12 14 13 9 7 5 5 6 7 4 4 7 7 8 8 8 9 9 8 9 9 10 10 10 11 11 11 12 11 10 9 9 7 7 8 8 8 6 6
11 13 14 14 14 15 13 12 11 10 6 4 5 6 5 1 5 6 7 9 8 8 10 8 9 9 9 10 10 11 11 10 11 10 9 9 9 8 8 8 7 6 5 6
11 9 11 13 13 15 14 11 7 9 7 7 6 6 4 4 4 5 6 8 8 8 9 9 9 9 8 9 9 9 10 10 10 10 9 10 9 9 8 8 7 6 6 6
14 10 9 11 13 13 12 14 9 7 8 8 5 2 1 3 0 3 5 7 9 9 10 9 9 9 9 8 9 9 10 10 10 10 9 9 9 9 8 7 7 6 6 7
12 9 8 10 9 9 12 12 10 7 7 7 6 2 1 2 3 1 5 6 8 9 10 10 11 11 10 9 8 8 10 10 10 10 9 8 8 9 9 8 7 7 7 7
7 7 8 8 8 8 10 10 10 9 7 8 7 2 5 3 1 1 6 8 8 8 9 10 10 10 10 10 9 8 9 10 11 10 10 9 9 9 9 8 8 8 8 7
7 7 10 9 5 5 9 11 10 9 8 7 5 3 3 2 1 0 5 6 7 8 8 9 8 8 8 8 8 9 9 11 11 10 10 9 9 8 8 8 8 8 8 8
7 10 11 8 6 7 9 12 10 10 10 7 3 2 4 3 2 3 4 6 7 7 8 8 8 7 7 7 7 8 9 9 10 11 10 9 9 8 8 8 8 8 8 9
6 7 8 9 9 7 9 10 9 11 8 5 5 3 3 3 4 7 4 4 6 6 5 6 7 7 7 7 7 7 7 8 8 9 9 9 9 9 8 8 8 8 8 7
6 6 8 9 8 8 11 9 9 9 7 5 4 2 5 5 6 7 5 4 5 5 4 3 5 5 5 5 6 7 7 8 8 8 9 9 9 9 9 10 9 9 8 7
5 5 6 8 8 11 5 3 5 5 3 2 6 7 7 8 8 9 8 5 5 5 5 4 2 3 4 4 5 5 7 7 7 8 8 8 9 9 9 8 8 8 7 6
6 6 6 6 8 8 2 1 2 1 2 7 8 8 8 8 10 10 8 7 8 9 7 6 4 3 3 3 4 5 5 6 6 6 6 7 8 8 8 8 7 6 6 6
6 5 6 6 7 6 1 6 5 1 3 8 8 7 5 3 3 5 7 9 10 9 7 7 6 6 5 3 4 5 5 5 5 5 5 5 5 6 5 5 5 5 5 5
7 7 8 8 8 2 5 6 5 1 3 6 7 7 7 6 5 6 8 10 9 9 8 8 9 8 7 6 5 5 4 3 3 4 4 4 4 5 5 4 3 3 4 4
5 5 6 6 6 1 7 6 5 4 4 6 7 7 8 9 9 9 10 10 10 10 10 10 10 10 9 8 8 8 6 4 4 5 5 5 5 4 3 4 3 3 3 4
1 1 1 2 3 7 6 6 5 3 4 5 5 6 7 9 10 11 11 11 11 11 10 10 11 11 10 10 9 8 6 6 6 7 7 6 6 5 5 5 4 3 2 2
2 4 5 5 6 8 8 8 7 6 7 6 6 6 8 10 12 11 10 10 10 10 10 10 12 12 11 11 11 9 7 6 7 7 7 7 7 7 6 6 5 4 3 2
2 2 3 5 7 7 8 8 9 8 9 9 11 11 12 13 13 12 11 10 10 11 10 11 11 11 10 10 10 10 8 7 7 7 6 6 6 6 6 7 7 6 6 5
2 2 2 4 6 6 7 7 9 9 9 11 12 13 12 12 13 12 12 11 11 11 10 11 12 12 10 10 10 9 8 7 6 6 5 4 4 4 5 7 7 11 8 9
Wind_Direction
210 223 229 231 232 243 265 282 275 262 242 235 241 243 226 186 207 211 189 173 170 170 162 162 168 168 166 167 167 169 170 166 165 167 172 169 172 169 163 159 156 167 167 162
213 225 236 244 246 244 251 261 268 262 245 244 249 252 243 203 214 207 185 178 174 167 155 157 165 167 171 172 172 173 173 171 172 172 170 169 165 170 169 161 158 170 167 163
223 226 222 239 249 250 251 255 259 256 257 252 255 254 243 222 232 242 193 175 176 171 162 163 169 173 178 178 179 183 178 174 174 168 166 164 156 170 166 159 163 175 169 171
231 240 236 231 238 243 248 253 262 263 262 259 254 261 217 215 203 233 208 191 174 165 160 166 170 175 181 182 181 177 175 174 172 169 175 173 171 177 173 167 167 174 174 175
225 230 236 239 240 239 249 258 260 264 265 270 264 262 236 202 191 213 194 200 176 161 163 167 173 175 177 181 179 177 176 177 175 177 178 178 178 179 170 169 165 171 177 181
240 230 230 236 239 239 243 251 259 260 261 253 256 254 241 187 191 198 186 182 159 154 155 160 164 162 168 177 176 174 176 178 176 178 181 182 181 179 174 172 166 171 174 183
236 238 229 230 235 228 230 237 242 245 244 256 276 261 223 180 179 176 164 158 148 146 148 155 160 165 171 176 175 175 174 178 178 179 181 185 183 183 180 175 172 176 176 180
223 230 223 218 228 229 225 233 232 245 250 279 312 281 247 175 152 140 145 143 142 146 147 152 159 160 169 172 171 172 172 176 177 180 182 183 182 182 183 183 178 182 180 175
229 227 218 212 221 233 231 232 236 244 244 256 244 269 290 145 127 140 148 140 146 147 141 150 154 154 160 164 165 167 166 170 174 176 176 181 184 186 183 180 181 179 176 167
255 254 225 206 212 225 235 232 238 250 249 251 239 223 233 196 184 162 152 142 142 145 142 146 146 149 152 153 156 161 164 166 165 170 177 178 182 184 179 176 182 176 171 160
240 252 237 212 211 224 223 237 241 259 266 267 256 225 314 321 14 130 133 138 144 150 142 142 142 144 143 149 159 162 165 165 166 172 179 175 178 181 176 177 180 173 162 157
226 242 246 232 224 236 237 240 242 249 267 281 280 208 214 330 333 182 140 141 143 144 143 141 140 142 146 154 160 163 167 168 169 171 174 175 174 175 177 180 181 172 164 164
221 236 239 237 234 234 243 236 242 245 248 258 266 201 172 209 227 225 137 137 134 130 131 134 137 142 150 154 156 165 170 171 171 173 177 175 175 176 181 182 178 174 171 176
241 233 247 244 232 235 258 255 246 245 244 246 253 178 182 226 94 127 115 117 126 127 125 129 132 138 145 152 157 165 172 173 172 173 179 178 180 181 184 182 179 179 178 181
242 234 242 247 226 243 259 262 257 253 255 254 244 223 195 178 131 88 81 105 123 125 130 133 139 142 147 153 159 168 172 173 173 175 180 180 180 181 185 184 184 182 182 189
231 258 253 246 233 236 252 257 262 261 256 238 222 206 129 130 111 88 67 70 95 108 121 135 141 148 156 161 168 171 174 173 172 178 182 180 180 182 185 186 186 185 189 193
229 249 258 253 240 231 238 247 246 260 265 235 230 136 118 91 74 74 68 57 80 88 89 111 141 147 154 169 173 173 176 173 177 182 185 183 184 186 188 194 190 190 191 193
249 253 249 250 245 241 234 239 259 263 304 24 78 91 88 94 81 67 51 44 53 63 64 65 78 134 155 167 169 171 174 173 180 185 189 187 188 191 191 193 190 190 188 190
224 225 245 250 246 250 238 330 307 243 67 61 83 83 84 96 95 70 53 55 60 57 51 43 41 72 116 148 161 159 164 170 176 181 185 184 184 186 186 188 187 184 182 189
208 209 239 248 255 258 328 353 353 72 101 59 78 81 85 97 84 72 59 64 60 55 47 44 44 53 63 81 135 143 158 159 168 174 176 175 169 171 179 182 176 176 178 187
204 207 224 239 250 253 14 340 332 294 84 57 70 73 70 65 75 91 77 69 63 59 51 50 52 51 45 53 79 100 104 113 138 145 138 136 138 146 149 148 147 152 166 170
214 219 221 229 235 197 19 10 31 46 46 64 72 79 85 95 97 90 81 73 67 62 58 59 59 54 45 45 64 73 66 64 82 93 97 103 105 122 137 128 129 134 149 156
183 106 56 49 81 84 75 75 73 75 70 69 83 89 94 102 97 92 84 78 71 66 62 60 64 61 52 46 53 63 58 64 71 74 77 78 83 78 72 89 98 101 107 138
58 75 98 99 97 87 79 78 71 68 72 73 84 90 98 98 96 92 86 80 74 68 63 63 63 61 54 47 46 46 49 61 73 76 76 77 80 77 69 67 67 69 65 70
30 58 111 117 115 99 79 74 75 71 76 82 82 82 91 96 94 91 87 80 76 72 68 66 65 63 57 51 46 41 41 54 69 74 78 82 83 88 81 73 58 65 57 51
50 92 121 115 120 112 101 88 85 82 80 82 86 86 86 90 93 91 88 83 80 77 72 70 68 65 57 53 48 42 35 42 55 64 68 85 98 100 104 103 82 55 68 69